Regional Weather Roundup
Issued by NWS

Home | Current Version | Previous Version | Text Only | Print | Product List | Glossary On
Versions: 1 2 3 4 5 6 7 8 9 10 11 12 13 14 15 16 17 18 19 20 21 22 23 24 25 26 27 28 29 30 31 32 33 34 35 36 37 38 39 40 41 42 43 44 45 46 47 48 49 50
000
ASUS43 KTOP 021959
RWRKS

WEATHER ROUNDUP FOR KANSAS
NATIONAL WEATHER SERVICE GOODLAND KS
300 PM CDT WED SEP 02 2015

NOTE:  "FAIR" INDICATES FEW OR NO CLOUDS BELOW 12,000 FEET WITH NO
SIGNIFICANT WEATHER AND/OR OBSTRUCTIONS TO VISIBILITY.

KSZ001>006-013>018-027>032-041>047-022100-
NORTHWEST KANSAS

CITY           SKY/WX    TMP DP  RH WIND       PRES   REMARKS
GOODLAND       MOSUNNY   94  48  20 S9        29.93F
HAYS           SUNNY     99  57  25 S20G28    29.85F HX  97
HILL CITY      SUNNY    100  57  23 SE12G20   29.85F HX  99
RUSSELL        SUNNY     99  58  25 S23G32    29.85F HX  98
$$

KSZ061>065-074>080-084>089-022100-
SOUTHWEST KANSAS

CITY           SKY/WX    TMP DP  RH WIND       PRES   REMARKS
DODGE CITY     SUNNY     97  51  21 SW22      29.91F
ELKHART          N/A     95  56  27 S12         N/A
GARDEN CITY    SUNNY     97  55  24 S12G22    29.91F HX  95
GREAT BEND     SUNNY     99  59  26 S24G33    29.86F HX  98
LIBERAL        SUNNY     99  55  23 SW14G23   29.95F HX  97
$$

KSZ066>073-081>083-090>101-022100-
SOUTHEAST KANSAS

CITY           SKY/WX    TMP DP  RH WIND       PRES   REMARKS
CHANUTE        SUNNY     87  70  56 S15G22    30.01F
COFFEYVILLE    SUNNY     87  73  62 S13G20    30.00F
HUTCHINSON     SUNNY     95  61  32 S24G35    29.91F HX  95
NEWTON         SUNNY     93  63  36 S24       29.96F
PARSONS        MOSUNNY   87  72  60 S9G17     30.02F
WICHITA INTL   MOSUNNY   94  63  35 S18G28    29.93F HX  95
WICHITA JABRA  SUNNY     91  66  43 S15G26    29.94F
WINFIELD       SUNNY     94  64  37 S18G24    29.97F HX  95
$$

KSZ007>012-019>026-033>040-048>060-102>105-022100-
NORTHEAST KANSAS

CITY           SKY/WX    TMP DP  RH WIND       PRES   REMARKS
CONCORDIA      SUNNY     95  63  34 S21G26    29.87F HX  96
EMPORIA        SUNNY     91  65  41 S20       29.95F
LAWRENCE       SUNNY     90  70  51 S14G25    29.95F HX  95
MANHATTAN      SUNNY     94  64  37 S18G28    29.90F HX  95
OLATHE IND     MOSUNNY   88  70  55 S14G25    29.99F
OLATHE EXE     MOSUNNY   85  70  60 S14       29.98F
SALINA         SUNNY     97  61  30 S18G36    29.87F HX  97
TOPEKA BILLARD SUNNY     90  69  50 S12       29.94F
TOPEKA FORBES  SUNNY     90  69  50 S21G26    29.95F
$$



USA.gov is the U.S. government's official web portal to all federal, state and local government web resources and services.